Location: Lesignano de� Bagni
(44.6500°N, 10.3000°E)
Time: 18:25:53
(UTC+00:00)

Ariane Rocket - Pass Details

Date: 03 March 2021
Orbit: 759 x 771 km, 98.7° (Epoch: 19 April)

Event Time Altitude Azimuth Distance (km) Brightness Sun altitude
Exits shadow 18:42:04 28° 116° (ESE) 1,415 3.8 -17.2°
Maximum altitude 18:44:07 41° 68° (ENE) 1,110 3.4 -17.6°
Drops below altitude 10° 18:48:53 10° 360° (N) 2,322 5.6 -18.4°
Sets 18:51:18 0° 353° (N) 3,252 6.5 -18.9°
